Time,TemperatureF,DewpointF,PressureIn,WindDirection,WindDirectionDegrees,WindSpeedMPH,WindSpeedGustMPH,Humidity,HourlyPrecipIn,Conditions,Clouds,dailyrainin,SoftwareType,DateUTC
2013-06-14 00:01:00,54.9,54.3,29.57,NE,53,15.0,26.0,98,0.22,,,0.47,meteohub,2013-06-14 04:01:00,
2013-06-14 00:06:00,54.9,54.0,29.57,NE,35,13.0,25.0,97,0.19,,,0.00,meteohub,2013-06-14 04:06:00,
2013-06-14 00:11:00,55.0,54.1,29.57,NNE,29,11.0,25.0,97,0.12,,,0.00,meteohub,2013-06-14 04:11:00,
2013-06-14 00:16:00,54.9,54.0,29.58,NE,51,13.0,23.0,97,0.07,,,0.00,meteohub,2013-06-14 04:16:00,
2013-06-14 00:21:00,54.9,54.0,29.58,NNE,25,8.0,22.0,97,0.06,,,0.01,meteohub,2013-06-14 04:21:00,
2013-06-14 00:26:00,54.7,54.1,29.58,NNE,19,8.0,19.0,98,0.05,,,0.01,meteohub,2013-06-14 04:26:00,
2013-06-14 00:31:00,54.7,54.1,29.58,North,5,6.0,19.0,98,0.05,,,0.02,meteohub,2013-06-14 04:31:00,
2013-06-14 00:36:00,54.7,54.1,29.57,NE,41,20.0,22.0,98,0.06,,,0.03,meteohub,2013-06-14 04:36:00,
2013-06-14 00:41:00,54.9,54.3,29.57,NE,49,10.0,24.0,98,0.05,,,0.03,meteohub,2013-06-14 04:41:00,
2013-06-14 00:46:00,54.9,54.3,29.57,NE,51,12.0,24.0,98,0.05,,,0.04,meteohub,2013-06-14 04:46:00,
2013-06-14 00:52:00,54.9,54.3,29.57,NE,44,10.0,24.0,98,0.05,,,0.04,meteohub,2013-06-14 04:52:00,
2013-06-14 00:57:00,54.9,54.3,29.57,NNE,33,9.0,25.0,98,0.04,,,0.04,meteohub,2013-06-14 04:57:00,
2013-06-14 01:02:00,54.9,54.3,29.57,NE,34,12.0,25.0,98,0.05,,,0.05,meteohub,2013-06-14 05:02:00,
2013-06-14 01:07:00,54.7,54.1,29.56,NNW,338,3.0,25.0,98,0.05,,,0.05,meteohub,2013-06-14 05:07:00,
2013-06-14 01:12:00,54.9,54.3,29.56,ENE,73,12.0,20.0,98,0.05,,,0.05,meteohub,2013-06-14 05:12:00,
2013-06-14 01:17:00,54.9,54.3,29.57,ENE,63,12.0,20.0,98,0.05,,,0.05,meteohub,2013-06-14 05:17:00,
2013-06-14 01:22:00,54.9,54.3,29.56,NE,35,6.0,20.0,98,0.05,,,0.06,meteohub,2013-06-14 05:22:00,
2013-06-14 01:27:00,54.7,54.1,29.56,NE,34,3.0,23.0,98,0.05,,,0.06,meteohub,2013-06-14 05:27:00,
2013-06-14 01:32:00,54.7,54.1,29.56,ENE,60,12.0,23.0,98,0.08,,,0.10,meteohub,2013-06-14 05:32:00,
2013-06-14 01:37:00,54.5,54.0,29.56,NE,56,11.0,20.0,98,0.08,,,0.11,meteohub,2013-06-14 05:37:00,
2013-06-14 01:42:00,54.3,53.8,29.55,SE,142,3.0,21.0,98,0.09,,,0.12,meteohub,2013-06-14 05:42:00,
2013-06-14 01:47:00,54.3,53.8,29.55,NNE,27,7.0,21.0,98,0.09,,,0.13,meteohub,2013-06-14 05:47:00,
2013-06-14 01:52:00,54.3,53.8,29.55,NNE,12,8.0,22.0,98,0.10,,,0.14,meteohub,2013-06-14 05:52:00,
2013-06-14 01:57:00,54.3,53.8,29.55,East,81,12.0,23.0,98,0.10,,,0.14,meteohub,2013-06-14 05:57:00,
2013-06-14 02:02:00,54.3,53.8,29.55,NE,37,11.0,24.0,98,0.09,,,0.14,meteohub,2013-06-14 06:02:00,
2013-06-14 02:07:00,54.3,53.8,29.55,NE,40,3.0,24.0,98,0.10,,,0.15,meteohub,2013-06-14 06:07:00,
2013-06-14 02:12:00,54.1,53.6,29.55,NE,35,20.0,23.0,98,0.11,,,0.16,meteohub,2013-06-14 06:12:00,
2013-06-14 02:17:00,54.1,53.6,29.55,NE,54,20.0,21.0,98,0.10,,,0.16,meteohub,2013-06-14 06:17:00,
2013-06-14 02:22:00,54.3,53.8,29.55,North,8,10.0,27.0,98,0.11,,,0.17,meteohub,2013-06-14 06:22:00,
2013-06-14 02:27:00,54.1,53.6,29.55,ENE,58,22.0,27.0,98,0.10,,,0.18,meteohub,2013-06-14 06:27:00,
2013-06-14 02:32:00,54.1,53.6,29.55,NE,51,14.0,27.0,98,0.11,,,0.22,meteohub,2013-06-14 06:32:00,
2013-06-14 02:37:00,54.1,53.6,29.55,NNE,27,4.0,23.0,98,0.13,,,0.24,meteohub,2013-06-14 06:37:00,
2013-06-14 02:42:00,54.1,53.6,29.55,NE,41,7.0,22.0,98,0.13,,,0.25,meteohub,2013-06-14 06:42:00,
2013-06-14 02:47:00,54.1,53.8,29.55,NNE,30,15.0,20.0,99,0.12,,,0.26,meteohub,2013-06-14 06:47:00,
2013-06-14 02:52:00,54.1,53.8,29.55,NNE,30,14.0,20.0,99,0.13,,,0.27,meteohub,2013-06-14 06:52:00,
2013-06-14 02:57:00,54.1,53.8,29.55,NNE,18,15.0,26.0,99,0.13,,,0.27,meteohub,2013-06-14 06:57:00,
2013-06-14 03:02:00,54.1,53.8,29.55,ENE,61,13.0,26.0,99,0.13,,,0.28,meteohub,2013-06-14 07:02:00,
2013-06-14 03:07:00,54.0,53.6,29.55,North,354,7.0,26.0,99,0.13,,,0.28,meteohub,2013-06-14 07:07:00,
2013-06-14 03:12:00,54.0,53.6,29.55,NE,55,11.0,27.0,99,0.12,,,0.28,meteohub,2013-06-14 07:12:00,
2013-06-14 03:17:00,54.0,53.6,29.56,NNE,26,12.0,27.0,99,0.12,,,0.29,meteohub,2013-06-14 07:17:00,
2013-06-14 03:22:00,54.0,53.6,29.55,NE,43,12.0,27.0,99,0.12,,,0.29,meteohub,2013-06-14 07:22:00,
2013-06-14 03:27:00,53.8,53.4,29.56,North,7,11.0,25.0,99,0.10,,,0.29,meteohub,2013-06-14 07:27:00,
2013-06-14 03:32:00,53.8,53.4,29.56,NNE,18,14.0,25.0,99,0.07,,,0.30,meteohub,2013-06-14 07:32:00,
2013-06-14 03:37:00,53.8,53.4,29.55,NE,39,10.0,28.0,99,0.06,,,0.30,meteohub,2013-06-14 07:37:00,
2013-06-14 03:42:00,53.8,53.4,29.55,NNE,30,11.0,28.0,99,0.05,,,0.30,meteohub,2013-06-14 07:42:00,
2013-06-14 03:47:00,53.8,53.4,29.55,ENE,59,5.0,28.0,99,0.05,,,0.31,meteohub,2013-06-14 07:47:00,
2013-06-14 03:52:00,53.8,53.4,29.55,NNW,340,8.0,23.0,99,0.05,,,0.32,meteohub,2013-06-14 07:52:00,
2013-06-14 03:57:00,53.6,53.2,29.56,NNE,32,11.0,26.0,99,0.05,,,0.33,meteohub,2013-06-14 07:57:00,
2013-06-14 04:02:00,53.4,53.1,29.56,NNE,23,10.0,26.0,99,0.06,,,0.34,meteohub,2013-06-14 08:02:00,
2013-06-14 04:07:00,53.4,53.1,29.56,NNE,23,18.0,25.0,99,0.07,,,0.35,meteohub,2013-06-14 08:07:00,
2013-06-14 04:12:00,53.4,53.1,29.58,NE,39,14.0,25.0,99,0.07,,,0.35,meteohub,2013-06-14 08:12:00,
2013-06-14 04:17:00,53.4,53.1,29.58,North,11,11.0,25.0,99,0.07,,,0.36,meteohub,2013-06-14 08:17:00,
2013-06-14 04:22:00,53.4,53.1,29.58,NNE,33,8.0,22.0,99,0.07,,,0.36,meteohub,2013-06-14 08:22:00,
2013-06-14 04:27:00,53.4,53.1,29.58,NNE,29,22.0,23.0,99,0.08,,,0.37,meteohub,2013-06-14 08:27:00,
2013-06-14 04:32:00,53.4,53.1,29.57,North,350,23.0,23.0,99,0.10,,,0.39,meteohub,2013-06-14 08:32:00,
2013-06-14 04:37:00,53.4,53.1,29.57,NE,34,14.0,26.0,99,0.11,,,0.41,meteohub,2013-06-14 08:37:00,
2013-06-14 04:42:00,53.2,52.9,29.56,NNE,33,22.0,28.0,99,0.12,,,0.43,meteohub,2013-06-14 08:42:00,
2013-06-14 04:47:00,53.2,52.9,29.56,NNE,19,24.0,28.0,99,0.13,,,0.44,meteohub,2013-06-14 08:47:00,
2013-06-14 04:52:00,53.2,52.9,29.56,NNE,29,21.0,29.0,99,0.11,,,0.44,meteohub,2013-06-14 08:52:00,
2013-06-14 04:57:00,53.2,53.2,29.57,North,1,10.0,29.0,100,0.11,,,0.44,meteohub,2013-06-14 08:57:00,
2013-06-14 05:02:00,53.1,53.1,29.57,North,0,12.0,30.0,100,0.11,,,0.45,meteohub,2013-06-14 09:02:00,
2013-06-14 05:07:00,53.1,53.1,29.58,North,6,14.0,30.0,100,0.11,,,0.46,meteohub,2013-06-14 09:07:00,
2013-06-14 05:12:00,53.1,53.1,29.58,NNW,345,14.0,30.0,100,0.12,,,0.47,meteohub,2013-06-14 09:12:00,
2013-06-14 05:17:00,53.1,53.1,29.58,NNE,27,10.0,26.0,100,0.13,,,0.48,meteohub,2013-06-14 09:17:00,
2013-06-14 05:22:00,53.1,53.1,29.59,North,8,13.0,22.0,100,0.13,,,0.49,meteohub,2013-06-14 09:22:00,
2013-06-14 05:27:00,53.1,53.1,29.60,NNE,20,15.0,22.0,100,0.12,,,0.50,meteohub,2013-06-14 09:27:00,
2013-06-14 05:32:00,53.1,53.1,29.60,NNE,21,9.0,26.0,100,0.11,,,0.51,meteohub,2013-06-14 09:32:00,
2013-06-14 05:37:00,53.2,53.2,29.61,North,0,10.0,26.0,100,0.09,,,0.51,meteohub,2013-06-14 09:37:00,
2013-06-14 05:42:00,53.2,53.2,29.61,NNW,337,9.0,26.0,100,0.09,,,0.53,meteohub,2013-06-14 09:42:00,
2013-06-14 05:47:00,53.1,53.1,29.62,NNE,30,8.0,24.0,100,0.11,,,0.54,meteohub,2013-06-14 09:47:00,
2013-06-14 05:52:00,53.1,53.1,29.62,NNE,29,15.0,24.0,100,0.11,,,0.55,meteohub,2013-06-14 09:52:00,
2013-06-14 05:57:00,53.1,53.1,29.61,NE,53,11.0,23.0,100,0.12,,,0.57,meteohub,2013-06-14 09:57:00,
2013-06-14 06:02:00,53.1,53.1,29.61,NNE,15,17.0,23.0,100,0.13,,,0.58,meteohub,2013-06-14 10:02:00,
2013-06-14 06:07:00,53.2,53.2,29.61,NNE,23,11.0,23.0,100,0.13,,,0.59,meteohub,2013-06-14 10:07:00,
2013-06-14 06:12:00,53.2,53.2,29.62,NE,46,7.0,20.0,100,0.13,,,0.60,meteohub,2013-06-14 10:12:00,
2013-06-14 06:17:00,53.2,53.2,29.62,NNE,27,8.0,20.0,100,0.12,,,0.60,meteohub,2013-06-14 10:17:00,
2013-06-14 06:22:00,53.2,53.2,29.62,NNW,346,8.0,17.0,100,0.12,,,0.61,meteohub,2013-06-14 10:22:00,
2013-06-14 06:27:00,53.2,53.2,29.62,NNE,19,22.0,22.0,100,0.11,,,0.61,meteohub,2013-06-14 10:27:00,
2013-06-14 06:32:00,53.2,53.2,29.62,NE,35,13.0,19.0,100,0.11,,,0.62,meteohub,2013-06-14 10:32:00,
2013-06-14 06:37:00,53.2,53.2,29.62,NNW,340,6.0,22.0,100,0.10,,,0.62,meteohub,2013-06-14 10:37:00,
2013-06-14 06:42:00,53.2,53.2,29.62,NNE,15,18.0,22.0,100,0.08,,,0.62,meteohub,2013-06-14 10:42:00,
2013-06-14 06:47:00,53.2,53.2,29.62,NNW,344,12.0,22.0,100,0.07,,,0.62,meteohub,2013-06-14 10:47:00,
2013-06-14 06:52:00,53.2,53.2,29.62,NE,41,17.0,22.0,100,0.06,,,0.62,meteohub,2013-06-14 10:52:00,
2013-06-14 06:57:00,53.2,53.2,29.62,NE,50,14.0,26.0,100,0.05,,,0.62,meteohub,2013-06-14 10:57:00,
2013-06-14 07:02:00,53.2,53.2,29.63,NE,43,16.0,26.0,100,0.04,,,0.62,meteohub,2013-06-14 11:02:00,
2013-06-14 07:07:00,53.2,53.2,29.63,NNW,327,15.0,26.0,100,0.03,,,0.62,meteohub,2013-06-14 11:07:00,
2013-06-14 07:12:00,53.1,53.1,29.63,NNE,20,12.0,28.0,100,0.03,,,0.63,meteohub,2013-06-14 11:12:00,
2013-06-14 07:17:00,53.1,53.1,29.63,North,4,14.0,28.0,100,0.02,,,0.63,meteohub,2013-06-14 11:17:00,
2013-06-14 07:21:00,53.1,53.1,29.63,North,352,18.0,28.0,100,0.02,,,0.63,meteohub,2013-06-14 11:21:00,
2013-06-14 07:26:00,53.1,53.1,29.63,NE,42,10.0,25.0,100,0.01,,,0.63,meteohub,2013-06-14 11:26:00,
2013-06-14 07:32:00,52.9,52.9,29.64,NNE,13,5.0,24.0,100,0.01,,,0.63,meteohub,2013-06-14 11:32:00,
2013-06-14 07:37:00,52.9,52.9,29.64,ENE,70,10.0,24.0,100,0.01,,,0.63,meteohub,2013-06-14 11:37:00,
2013-06-14 07:42:00,52.9,52.9,29.63,NE,43,15.0,23.0,100,0.01,,,0.63,meteohub,2013-06-14 11:42:00,
2013-06-14 07:47:00,52.9,52.9,29.63,NNW,345,11.0,22.0,100,0.02,,,0.64,meteohub,2013-06-14 11:47:00,
2013-06-14 07:52:00,52.9,52.9,29.64,NNE,13,13.0,24.0,100,0.02,,,0.64,meteohub,2013-06-14 11:52:00,
2013-06-14 07:57:00,52.9,52.9,29.64,ENE,63,15.0,24.0,100,0.02,,,0.64,meteohub,2013-06-14 11:57:00,
2013-06-14 08:02:00,52.9,52.9,29.65,NNE,25,13.0,24.0,100,0.02,,,0.64,meteohub,2013-06-14 12:02:00,
2013-06-14 08:07:00,52.9,52.9,29.64,North,5,6.0,24.0,100,0.03,,,0.65,meteohub,2013-06-14 12:07:00,
2013-06-14 08:12:00,53.1,53.1,29.65,NNE,20,6.0,24.0,100,0.02,,,0.65,meteohub,2013-06-14 12:12:00,
2013-06-14 08:17:00,53.2,53.2,29.65,North,358,12.0,24.0,100,0.02,,,0.65,meteohub,2013-06-14 12:17:00,
2013-06-14 08:22:00,53.2,53.2,29.65,NNE,18,14.0,21.0,100,0.02,,,0.65,meteohub,2013-06-14 12:22:00,
2013-06-14 08:27:00,53.2,53.2,29.65,North,349,12.0,21.0,100,0.02,,,0.65,meteohub,2013-06-14 12:27:00,
2013-06-14 08:32:00,53.4,53.4,29.65,NNE,20,13.0,22.0,100,0.02,,,0.65,meteohub,2013-06-14 12:32:00,
2013-06-14 08:37:00,53.8,53.8,29.65,NE,34,20.0,24.0,100,0.02,,,0.65,meteohub,2013-06-14 12:37:00,
2013-06-14 08:42:00,54.0,54.0,29.65,NE,34,11.0,24.0,100,0.02,,,0.65,meteohub,2013-06-14 12:42:00,
2013-06-14 08:47:00,53.8,53.8,29.65,NE,46,22.0,27.0,100,0.01,,,0.65,meteohub,2013-06-14 12:47:00,
2013-06-14 08:52:00,53.8,53.8,29.65,NNE,15,17.0,32.0,100,0.01,,,0.65,meteohub,2013-06-14 12:52:00,
2013-06-14 08:57:00,53.8,53.8,29.65,NNE,25,12.0,32.0,100,0.01,,,0.65,meteohub,2013-06-14 12:57:00,
2013-06-14 09:02:00,54.1,54.1,29.65,NNE,26,16.0,32.0,100,0.01,,,0.65,meteohub,2013-06-14 13:02:00,
2013-06-14 09:07:00,54.0,54.0,29.65,NE,39,18.0,28.0,100,0.00,,,0.65,meteohub,2013-06-14 13:07:00,
2013-06-14 09:12:00,54.0,53.6,29.66,NNE,30,19.0,28.0,99,0.00,,,0.65,meteohub,2013-06-14 13:12:00,
2013-06-14 09:17:00,54.3,54.0,29.66,North,0,18.0,30.0,99,0.00,,,0.65,meteohub,2013-06-14 13:17:00,
2013-06-14 09:22:00,54.7,54.3,29.66,North,9,13.0,30.0,99,0.00,,,0.65,meteohub,2013-06-14 13:22:00,
2013-06-14 09:27:00,54.9,54.5,29.66,NNE,25,9.0,27.0,99,0.00,,,0.65,meteohub,2013-06-14 13:27:00,
2013-06-14 09:32:00,55.0,54.5,29.66,North,1,11.0,29.0,98,0.00,,,0.65,meteohub,2013-06-14 13:32:00,
2013-06-14 09:37:00,55.8,55.2,29.65,NNE,32,17.0,29.0,98,0.00,,,0.65,meteohub,2013-06-14 13:37:00,
2013-06-14 09:42:00,56.5,54.1,29.66,NE,44,11.0,29.0,92,0.00,,,0.65,meteohub,2013-06-14 13:42:00,
2013-06-14 09:47:00,56.8,53.6,29.66,ENE,74,9.0,27.0,89,0.00,,,0.65,meteohub,2013-06-14 13:47:00,
2013-06-14 09:52:00,57.0,53.8,29.67,NNW,333,8.0,26.0,89,0.00,,,0.65,meteohub,2013-06-14 13:52:00,
2013-06-14 09:57:00,57.4,53.6,29.67,NE,55,13.0,26.0,87,0.00,,,0.65,meteohub,2013-06-14 13:57:00,
2013-06-14 10:02:00,57.6,53.1,29.67,NE,52,18.0,33.0,85,0.00,,,0.65,meteohub,2013-06-14 14:02:00,
2013-06-14 10:07:00,57.7,53.6,29.67,NE,39,6.0,33.0,86,0.00,,,0.65,meteohub,2013-06-14 14:07:00,
2013-06-14 10:12:00,57.9,53.4,29.67,NNE,20,11.0,22.0,85,0.00,,,0.65,meteohub,2013-06-14 14:12:00,
2013-06-14 10:17:00,57.9,52.7,29.68,NE,44,8.0,27.0,83,0.00,,,0.65,meteohub,2013-06-14 14:17:00,
2013-06-14 10:22:00,58.3,53.4,29.68,NNW,333,14.0,27.0,84,0.00,,,0.65,meteohub,2013-06-14 14:22:00,
2013-06-14 10:27:00,58.3,52.5,29.68,NE,44,15.0,27.0,81,0.00,,,0.65,meteohub,2013-06-14 14:27:00,
2013-06-14 10:32:00,58.3,52.2,29.68,North,11,11.0,27.0,80,0.00,,,0.65,meteohub,2013-06-14 14:32:00,
2013-06-14 10:37:00,58.5,52.7,29.69,NE,37,9.0,27.0,81,0.00,,,0.65,meteohub,2013-06-14 14:37:00,
2013-06-14 10:42:00,58.6,52.2,29.69,North,354,9.0,27.0,79,0.00,,,0.65,meteohub,2013-06-14 14:42:00,
2013-06-14 10:47:00,58.6,52.2,29.70,NNE,20,13.0,25.0,79,0.00,,,0.65,meteohub,2013-06-14 14:47:00,
2013-06-14 10:52:00,59.0,52.5,29.70,NE,53,9.0,25.0,79,0.00,,,0.65,meteohub,2013-06-14 14:52:00,
2013-06-14 10:57:00,59.2,51.6,29.69,NNE,19,18.0,25.0,76,0.00,,,0.65,meteohub,2013-06-14 14:57:00,
2013-06-14 11:02:00,59.4,51.8,29.70,NNW,338,15.0,25.0,76,0.00,,,0.65,meteohub,2013-06-14 15:02:00,
2013-06-14 11:07:00,59.4,51.8,29.70,NNW,330,11.0,25.0,76,0.00,,,0.65,meteohub,2013-06-14 15:07:00,
2013-06-14 11:12:00,59.5,52.0,29.70,NE,43,15.0,25.0,76,0.00,,,0.65,meteohub,2013-06-14 15:12:00,
2013-06-14 11:17:00,59.7,51.8,29.69,NNE,17,24.0,24.0,75,0.00,,,0.65,meteohub,2013-06-14 15:17:00,
2013-06-14 11:22:00,60.1,51.8,29.70,NNE,32,15.0,24.0,74,0.00,,,0.65,meteohub,2013-06-14 15:22:00,
2013-06-14 11:27:00,60.4,52.2,29.69,East,84,6.0,24.0,74,0.00,,,0.65,meteohub,2013-06-14 15:27:00,
2013-06-14 11:32:00,60.6,51.1,29.70,ENE,72,10.0,24.0,71,0.00,,,0.65,meteohub,2013-06-14 15:32:00,
2013-06-14 11:37:00,60.4,51.4,29.70,North,11,5.0,23.0,72,0.00,,,0.65,meteohub,2013-06-14 15:37:00,
2013-06-14 11:42:00,60.3,51.3,29.70,NE,44,19.0,23.0,72,0.00,,,0.65,meteohub,2013-06-14 15:42:00,
2013-06-14 11:47:00,60.3,51.6,29.70,NW,319,11.0,23.0,73,0.00,,,0.65,meteohub,2013-06-14 15:47:00,
2013-06-14 11:52:00,60.6,51.1,29.70,NNW,342,13.0,23.0,71,0.00,,,0.65,meteohub,2013-06-14 15:52:00,
2013-06-14 11:57:00,60.8,51.3,29.70,NNE,26,5.0,30.0,71,0.00,,,0.65,meteohub,2013-06-14 15:57:00,
2013-06-14 12:02:00,61.2,51.6,29.70,North,352,5.0,30.0,71,0.00,,,0.65,meteohub,2013-06-14 16:02:00,
2013-06-14 12:07:00,61.2,51.6,29.70,NW,319,13.0,24.0,71,0.00,,,0.65,meteohub,2013-06-14 16:07:00,
2013-06-14 12:12:00,60.6,50.7,29.70,ENE,60,12.0,22.0,70,0.00,,,0.65,meteohub,2013-06-14 16:12:00,
2013-06-14 12:17:00,60.4,51.4,29.71,North,350,6.0,29.0,72,0.00,,,0.65,meteohub,2013-06-14 16:17:00,
2013-06-14 12:22:00,60.8,51.8,29.71,North,356,18.0,29.0,72,0.00,,,0.65,meteohub,2013-06-14 16:22:00,
2013-06-14 12:27:00,60.6,51.6,29.72,NNW,345,5.0,29.0,72,0.00,,,0.65,meteohub,2013-06-14 16:27:00,
2013-06-14 12:32:00,61.0,52.0,29.72,NE,46,5.0,21.0,72,0.00,,,0.65,meteohub,2013-06-14 16:32:00,
2013-06-14 12:37:00,61.2,51.6,29.72,NE,49,12.0,21.0,71,0.00,,,0.65,meteohub,2013-06-14 16:37:00,
2013-06-14 12:42:00,61.5,51.6,29.72,North,352,16.0,20.0,70,0.00,,,0.65,meteohub,2013-06-14 16:42:00,
2013-06-14 12:47:00,61.5,51.3,29.72,NNE,26,9.0,20.0,69,0.00,,,0.65,meteohub,2013-06-14 16:47:00,
2013-06-14 12:52:00,62.1,52.2,29.72,ENE,65,6.0,20.0,70,0.00,,,0.65,meteohub,2013-06-14 16:52:00,
2013-06-14 12:57:00,62.4,51.8,29.72,NE,40,11.0,22.0,68,0.00,,,0.65,meteohub,2013-06-14 16:57:00,
2013-06-14 13:02:00,62.6,51.1,29.72,NNE,18,6.0,23.0,66,0.00,,,0.65,meteohub,2013-06-14 17:02:00,
2013-06-14 13:07:00,62.6,51.1,29.72,North,352,18.0,26.0,66,0.00,,,0.65,meteohub,2013-06-14 17:07:00,
2013-06-14 13:12:00,62.4,51.3,29.72,NW,316,6.0,26.0,67,0.00,,,0.65,meteohub,2013-06-14 17:12:00,
2013-06-14 13:17:00,62.8,51.6,29.72,NNE,17,6.0,25.0,67,0.00,,,0.65,meteohub,2013-06-14 17:17:00,
2013-06-14 13:22:00,63.0,51.8,29.73,North,359,9.0,21.0,67,0.00,,,0.65,meteohub,2013-06-14 17:22:00,
2013-06-14 13:27:00,63.1,51.3,29.73,NNE,15,12.0,20.0,65,0.00,,,0.65,meteohub,2013-06-14 17:27:00,
2013-06-14 13:32:00,63.5,51.1,29.73,NNW,347,10.0,24.0,64,0.00,,,0.65,meteohub,2013-06-14 17:32:00,
2013-06-14 13:37:00,63.9,50.5,29.72,NE,45,13.0,24.0,62,0.00,,,0.65,meteohub,2013-06-14 17:37:00,
2013-06-14 13:42:00,63.9,50.2,29.72,NW,307,15.0,24.0,61,0.00,,,0.65,meteohub,2013-06-14 17:42:00,
2013-06-14 13:47:00,64.0,50.4,29.73,NNE,20,14.0,28.0,61,0.00,,,0.65,meteohub,2013-06-14 17:47:00,
2013-06-14 13:52:00,64.0,51.3,29.73,ENE,64,11.0,28.0,63,0.00,,,0.65,meteohub,2013-06-14 17:52:00,
2013-06-14 13:57:00,64.2,50.9,29.73,NE,41,9.0,28.0,62,0.00,,,0.65,meteohub,2013-06-14 17:57:00,
2013-06-14 14:02:00,64.6,51.6,29.73,NNE,19,10.0,20.0,63,0.00,,,0.65,meteohub,2013-06-14 18:02:00,
2013-06-14 14:07:00,64.2,50.5,29.73,NNW,348,13.0,20.0,61,0.00,,,0.65,meteohub,2013-06-14 18:07:00,
2013-06-14 14:12:00,64.0,49.8,29.74,North,6,10.0,21.0,60,0.00,,,0.65,meteohub,2013-06-14 18:12:00,
2013-06-14 14:17:00,64.0,50.4,29.74,NW,319,5.0,21.0,61,0.00,,,0.65,meteohub,2013-06-14 18:17:00,
2013-06-14 14:22:00,64.0,50.4,29.74,NNW,340,6.0,21.0,61,0.00,,,0.65,meteohub,2013-06-14 18:22:00,
2013-06-14 14:27:00,64.0,50.4,29.74,NNE,25,5.0,21.0,61,0.00,,,0.65,meteohub,2013-06-14 18:27:00,
2013-06-14 14:32:00,63.9,49.6,29.74,NE,54,16.0,17.0,60,0.00,,,0.65,meteohub,2013-06-14 18:32:00,
2013-06-14 14:37:00,63.9,49.6,29.74,NNW,348,5.0,19.0,60,0.00,,,0.65,meteohub,2013-06-14 18:37:00,
2013-06-14 14:42:00,63.9,49.6,29.75,NNE,30,8.0,19.0,60,0.00,,,0.65,meteohub,2013-06-14 18:42:00,
2013-06-14 14:47:00,63.7,49.5,29.75,North,9,4.0,19.0,60,0.00,,,0.65,meteohub,2013-06-14 18:47:00,
2013-06-14 14:52:00,63.7,49.5,29.75,North,352,1.0,15.0,60,0.00,,,0.65,meteohub,2013-06-14 18:52:00,
2013-06-14 14:57:00,63.7,50.0,29.75,WNW,302,7.0,15.0,61,0.00,,,0.65,meteohub,2013-06-14 18:57:00,
2013-06-14 15:02:00,63.7,49.5,29.75,NE,46,6.0,15.0,60,0.00,,,0.65,meteohub,2013-06-14 19:02:00,
2013-06-14 15:07:00,63.7,50.0,29.75,North,354,4.0,12.0,61,0.00,,,0.65,meteohub,2013-06-14 19:07:00,
2013-06-14 15:12:00,63.7,50.0,29.75,North,1,6.0,10.0,61,0.00,,,0.65,meteohub,2013-06-14 19:12:00,
2013-06-14 15:17:00,63.7,50.4,29.75,NNE,17,5.0,10.0,62,0.00,,,0.65,meteohub,2013-06-14 19:17:00,
2013-06-14 15:22:00,63.7,50.0,29.75,NNW,330,2.0,10.0,61,0.00,,,0.65,meteohub,2013-06-14 19:22:00,
2013-06-14 15:27:00,63.5,50.7,29.75,NNW,330,5.0,10.0,63,0.00,,,0.65,meteohub,2013-06-14 19:27:00,
2013-06-14 15:32:00,63.5,50.7,29.75,North,354,5.0,10.0,63,0.00,,,0.65,meteohub,2013-06-14 19:32:00,
2013-06-14 15:37:00,63.3,50.5,29.75,NNW,342,2.0,8.0,63,0.00,,,0.65,meteohub,2013-06-14 19:37:00,
2013-06-14 15:42:00,63.3,50.9,29.75,North,9,5.0,7.0,64,0.00,,,0.65,meteohub,2013-06-14 19:42:00,
2013-06-14 15:47:00,63.3,50.9,29.75,NNW,348,1.0,6.0,64,0.00,,,0.65,meteohub,2013-06-14 19:47:00,
2013-06-14 15:52:00,63.7,51.6,29.75,North,352,1.0,6.0,65,0.00,,,0.65,meteohub,2013-06-14 19:52:00,
2013-06-14 15:57:00,64.0,51.3,29.75,WNW,296,0.0,5.0,63,0.00,,,0.65,meteohub,2013-06-14 19:57:00,
2013-06-14 16:02:00,64.8,51.4,29.75,NNW,333,3.0,3.0,62,0.00,,,0.65,meteohub,2013-06-14 20:02:00,
2013-06-14 16:07:00,65.1,51.3,29.75,WNW,295,4.0,5.0,61,0.00,,,0.65,meteohub,2013-06-14 20:07:00,
2013-06-14 16:12:00,65.7,51.8,29.74,NNE,30,0.0,6.0,61,0.00,,,0.65,meteohub,2013-06-14 20:12:00,
2013-06-14 16:17:00,66.7,53.2,29.74,WNW,284,1.0,6.0,62,0.00,,,0.65,meteohub,2013-06-14 20:17:00,
2013-06-14 16:22:00,67.5,54.0,29.74,WNW,283,1.0,8.0,62,0.00,,,0.65,meteohub,2013-06-14 20:22:00,
2013-06-14 16:27:00,68.2,54.7,29.74,West,274,5.0,8.0,62,0.00,,,0.65,meteohub,2013-06-14 20:27:00,
2013-06-14 16:32:00,67.8,54.7,29.74,NW,313,3.0,10.0,63,0.00,,,0.65,meteohub,2013-06-14 20:32:00,
2013-06-14 16:37:00,68.2,55.9,29.74,West,281,7.0,10.0,65,0.00,,,0.65,meteohub,2013-06-14 20:37:00,
2013-06-14 16:42:00,68.2,55.9,29.74,West,280,3.0,10.0,65,0.00,,,0.65,meteohub,2013-06-14 20:42:00,
2013-06-14 16:47:00,68.5,54.5,29.74,NNW,328,7.0,8.0,61,0.00,,,0.65,meteohub,2013-06-14 20:47:00,
2013-06-14 16:52:00,68.4,54.0,29.74,WNW,299,6.0,10.0,60,0.00,,,0.65,meteohub,2013-06-14 20:52:00,
2013-06-14 16:57:00,67.8,54.3,29.74,NW,313,5.0,10.0,62,0.00,,,0.65,meteohub,2013-06-14 20:57:00,
2013-06-14 17:02:00,67.6,54.1,29.74,NNW,330,4.0,10.0,62,0.00,,,0.65,meteohub,2013-06-14 21:02:00,
2013-06-14 17:07:00,67.8,54.3,29.74,WNW,299,3.0,10.0,62,0.00,,,0.65,meteohub,2013-06-14 21:07:00,
2013-06-14 17:12:00,68.2,55.0,29.74,NW,317,6.0,9.0,63,0.00,,,0.65,meteohub,2013-06-14 21:12:00,
2013-06-14 17:17:00,68.2,54.1,29.73,WNW,285,4.0,10.0,61,0.00,,,0.65,meteohub,2013-06-14 21:17:00,
2013-06-14 17:22:00,68.5,54.5,29.74,WNW,283,6.0,10.0,61,0.00,,,0.65,meteohub,2013-06-14 21:22:00,
2013-06-14 17:27:00,68.7,54.7,29.74,North,349,2.0,11.0,61,0.00,,,0.65,meteohub,2013-06-14 21:27:00,
2013-06-14 17:32:00,69.1,55.0,29.74,NW,309,4.0,11.0,61,0.00,,,0.65,meteohub,2013-06-14 21:32:00,
2013-06-14 17:37:00,69.3,55.2,29.74,NNW,333,5.0,11.0,61,0.00,,,0.65,meteohub,2013-06-14 21:37:00,
2013-06-14 17:42:00,69.4,55.4,29.74,WNW,293,7.0,9.0,61,0.00,,,0.65,meteohub,2013-06-14 21:42:00,
2013-06-14 17:47:00,68.9,55.4,29.75,WNW,284,5.0,9.0,62,0.00,,,0.65,meteohub,2013-06-14 21:47:00,
2013-06-14 17:52:00,68.9,55.4,29.75,NNW,340,4.0,11.0,62,0.00,,,0.65,meteohub,2013-06-14 21:52:00,
2013-06-14 17:57:00,69.1,55.6,29.74,WNW,299,4.0,11.0,62,0.00,,,0.65,meteohub,2013-06-14 21:57:00,
2013-06-14 18:02:00,69.4,55.9,29.74,WNW,302,3.0,8.0,62,0.00,,,0.65,meteohub,2013-06-14 22:02:00,
2013-06-14 18:07:00,69.4,55.9,29.75,NW,312,3.0,8.0,62,0.00,,,0.65,meteohub,2013-06-14 22:07:00,
2013-06-14 18:12:00,69.6,55.9,29.75,WNW,287,2.0,9.0,62,0.00,,,0.65,meteohub,2013-06-14 22:12:00,
2013-06-14 18:17:00,69.6,55.9,29.75,WNW,294,3.0,9.0,62,0.00,,,0.65,meteohub,2013-06-14 22:17:00,
2013-06-14 18:22:00,69.8,56.7,29.75,WNW,289,1.0,6.0,63,0.00,,,0.65,meteohub,2013-06-14 22:22:00,
2013-06-14 18:27:00,70.0,56.3,29.75,WNW,297,3.0,6.0,62,0.00,,,0.65,meteohub,2013-06-14 22:27:00,
2013-06-14 18:32:00,69.8,56.1,29.75,West,278,4.0,7.0,62,0.00,,,0.65,meteohub,2013-06-14 22:32:00,
2013-06-14 18:37:00,70.2,57.0,29.75,WNW,301,5.0,8.0,63,0.00,,,0.65,meteohub,2013-06-14 22:37:00,
2013-06-14 18:42:00,69.4,56.3,29.75,WNW,291,4.0,9.0,63,0.00,,,0.65,meteohub,2013-06-14 22:42:00,
2013-06-14 18:47:00,69.6,56.8,29.75,WSW,245,4.0,9.0,64,0.00,,,0.65,meteohub,2013-06-14 22:47:00,
2013-06-14 18:52:00,69.1,56.8,29.75,WNW,285,7.0,12.0,65,0.00,,,0.65,meteohub,2013-06-14 22:52:00,
2013-06-14 18:57:00,68.5,55.9,29.75,NW,307,7.0,12.0,64,0.00,,,0.65,meteohub,2013-06-14 22:57:00,
2013-06-14 19:02:00,68.5,56.7,29.75,SSW,203,3.0,12.0,66,0.00,,,0.65,meteohub,2013-06-14 23:02:00,
2013-06-14 19:07:00,68.7,56.8,29.75,West,271,2.0,10.0,66,0.00,,,0.65,meteohub,2013-06-14 23:07:00,
2013-06-14 19:12:00,68.5,57.2,29.75,SW,235,4.0,10.0,67,0.00,,,0.65,meteohub,2013-06-14 23:12:00,
2013-06-14 19:17:00,68.5,57.2,29.75,WSW,253,4.0,6.0,67,0.00,,,0.65,meteohub,2013-06-14 23:17:00,
2013-06-14 19:22:00,68.5,57.2,29.75,WNW,291,0.0,6.0,67,0.00,,,0.65,meteohub,2013-06-14 23:22:00,
2013-06-14 19:27:00,68.5,57.6,29.75,SW,232,2.0,6.0,68,0.00,,,0.65,meteohub,2013-06-14 23:27:00,
2013-06-14 19:32:00,68.2,57.6,29.75,SW,228,3.0,6.0,69,0.00,,,0.65,meteohub,2013-06-14 23:32:00,
2013-06-14 19:37:00,67.8,58.1,29.75,SSW,204,3.0,4.0,71,0.00,,,0.65,meteohub,2013-06-14 23:37:00,
2013-06-14 19:42:00,66.9,57.9,29.75,SW,224,2.0,5.0,73,0.00,,,0.65,meteohub,2013-06-14 23:42:00,
2013-06-14 19:47:00,66.6,57.6,29.75,WSW,243,7.0,7.0,73,0.00,,,0.65,meteohub,2013-06-14 23:47:00,
2013-06-14 19:52:00,66.0,57.2,29.75,SW,221,3.0,8.0,73,0.00,,,0.65,meteohub,2013-06-14 23:52:00,
2013-06-14 19:57:00,65.5,56.7,29.76,WSW,242,4.0,8.0,73,0.00,,,0.65,meteohub,2013-06-14 23:57:00,
2013-06-14 20:02:00,64.9,56.5,29.76,WSW,252,4.0,8.0,74,0.00,,,0.65,meteohub,2013-06-15 00:02:00,
2013-06-14 20:07:00,64.4,56.3,29.76,WSW,242,2.0,7.0,75,0.00,,,0.65,meteohub,2013-06-15 00:07:00,
2013-06-14 20:12:00,63.9,56.1,29.76,WSW,255,3.0,6.0,76,0.00,,,0.65,meteohub,2013-06-15 00:12:00,
2013-06-14 20:17:00,63.5,56.1,29.76,WSW,246,1.0,6.0,77,0.00,,,0.65,meteohub,2013-06-15 00:17:00,
2013-06-14 20:22:00,63.1,56.1,29.76,SW,226,0.0,6.0,78,0.00,,,0.65,meteohub,2013-06-15 00:22:00,
2013-06-14 20:27:00,63.0,56.3,29.76,WSW,252,2.0,6.0,79,0.00,,,0.65,meteohub,2013-06-15 00:27:00,
2013-06-14 20:32:00,62.6,55.9,29.76,West,273,1.0,6.0,79,0.00,,,0.65,meteohub,2013-06-15 00:32:00,
2013-06-14 20:37:00,62.4,56.1,29.77,WNW,288,4.0,5.0,80,0.00,,,0.65,meteohub,2013-06-15 00:37:00,
2013-06-14 20:42:00,62.2,56.3,29.77,West,276,3.0,6.0,81,0.00,,,0.65,meteohub,2013-06-15 00:42:00,
2013-06-14 20:47:00,62.1,56.1,29.77,West,278,1.0,7.0,81,0.00,,,0.65,meteohub,2013-06-15 00:47:00,
2013-06-14 20:52:00,62.1,56.5,29.77,WNW,299,5.0,7.0,82,0.00,,,0.65,meteohub,2013-06-15 00:52:00,
2013-06-14 20:57:00,62.1,56.5,29.77,West,273,6.0,10.0,82,0.00,,,0.65,meteohub,2013-06-15 00:57:00,
2013-06-14 21:02:00,62.1,56.5,29.77,WNW,284,5.0,10.0,82,0.00,,,0.65,meteohub,2013-06-15 01:02:00,
2013-06-14 21:07:00,62.1,56.8,29.78,NW,304,2.0,10.0,83,0.00,,,0.65,meteohub,2013-06-15 01:07:00,
2013-06-14 21:12:00,62.1,56.8,29.77,WNW,295,3.0,11.0,83,0.00,,,0.65,meteohub,2013-06-15 01:12:00,
2013-06-14 21:17:00,62.1,57.2,29.78,WNW,289,4.0,11.0,84,0.00,,,0.65,meteohub,2013-06-15 01:17:00,
2013-06-14 21:22:00,61.9,57.0,29.78,WNW,297,4.0,9.0,84,0.00,,,0.65,meteohub,2013-06-15 01:22:00,
2013-06-14 21:27:00,62.1,57.2,29.78,West,278,3.0,9.0,84,0.00,,,0.65,meteohub,2013-06-15 01:27:00,
2013-06-14 21:32:00,62.1,57.2,29.78,WNW,288,4.0,8.0,84,0.00,,,0.65,meteohub,2013-06-15 01:32:00,
2013-06-14 21:37:00,62.1,57.2,29.78,WNW,287,4.0,8.0,84,0.00,,,0.65,meteohub,2013-06-15 01:37:00,
2013-06-14 21:42:00,61.9,57.0,29.78,WNW,294,6.0,7.0,84,0.00,,,0.65,meteohub,2013-06-15 01:42:00,
2013-06-14 21:47:00,62.1,57.2,29.78,WNW,298,7.0,8.0,84,0.00,,,0.65,meteohub,2013-06-15 01:47:00,
2013-06-14 21:52:00,62.1,57.2,29.78,West,277,7.0,9.0,84,0.00,,,0.65,meteohub,2013-06-15 01:52:00,
2013-06-14 21:57:00,62.1,57.2,29.78,WNW,298,6.0,11.0,84,0.00,,,0.65,meteohub,2013-06-15 01:57:00,
2013-06-14 22:02:00,62.1,57.6,29.78,West,260,1.0,11.0,85,0.00,,,0.65,meteohub,2013-06-15 02:02:00,
2013-06-14 22:07:00,61.9,57.4,29.78,West,275,4.0,9.0,85,0.00,,,0.65,meteohub,2013-06-15 02:07:00,
2013-06-14 22:12:00,61.9,57.4,29.78,West,274,7.0,10.0,85,0.00,,,0.65,meteohub,2013-06-15 02:12:00,
2013-06-14 22:17:00,61.9,57.4,29.78,WNW,295,5.0,11.0,85,0.00,,,0.65,meteohub,2013-06-15 02:17:00,
2013-06-14 22:22:00,61.7,57.2,29.78,WNW,283,6.0,11.0,85,0.00,,,0.65,meteohub,2013-06-15 02:22:00,
2013-06-14 22:27:00,61.5,57.4,29.78,WNW,290,5.0,11.0,86,0.00,,,0.65,meteohub,2013-06-15 02:27:00,
2013-06-14 22:32:00,61.5,57.4,29.78,NW,324,7.0,9.0,86,0.00,,,0.65,meteohub,2013-06-15 02:32:00,
2013-06-14 22:37:00,61.3,57.2,29.78,WNW,299,7.0,9.0,86,0.00,,,0.65,meteohub,2013-06-15 02:37:00,
2013-06-14 22:42:00,61.3,57.2,29.78,WNW,288,3.0,9.0,86,0.00,,,0.65,meteohub,2013-06-15 02:42:00,
2013-06-14 22:47:00,61.3,57.4,29.78,WNW,302,3.0,9.0,87,0.00,,,0.65,meteohub,2013-06-15 02:47:00,
2013-06-14 22:52:00,61.3,57.4,29.78,WNW,302,9.0,9.0,87,0.00,,,0.65,meteohub,2013-06-15 02:52:00,
2013-06-14 22:57:00,61.2,57.2,29.78,WNW,299,4.0,9.0,87,0.00,,,0.65,meteohub,2013-06-15 02:57:00,
2013-06-14 23:02:00,61.2,57.2,29.79,WNW,293,3.0,9.0,87,0.00,,,0.65,meteohub,2013-06-15 03:02:00,
2013-06-14 23:07:00,61.2,57.2,29.79,NW,304,4.0,9.0,87,0.00,,,0.65,meteohub,2013-06-15 03:07:00,
2013-06-14 23:12:00,61.0,57.4,29.79,NW,312,3.0,8.0,88,0.00,,,0.65,meteohub,2013-06-15 03:12:00,
2013-06-14 23:17:00,60.8,57.2,29.79,NW,319,5.0,8.0,88,0.00,,,0.65,meteohub,2013-06-15 03:17:00,
2013-06-14 23:22:00,60.8,57.2,29.79,WNW,301,3.0,10.0,88,0.00,,,0.65,meteohub,2013-06-15 03:22:00,
2013-06-14 23:27:00,60.6,57.0,29.79,NW,322,8.0,11.0,88,0.00,,,0.65,meteohub,2013-06-15 03:27:00,
2013-06-14 23:32:00,60.8,57.2,29.79,West,281,0.0,11.0,88,0.00,,,0.65,meteohub,2013-06-15 03:32:00,
2013-06-14 23:37:00,60.6,57.0,29.79,WNW,298,7.0,9.0,88,0.00,,,0.65,meteohub,2013-06-15 03:37:00,
2013-06-14 23:42:00,60.8,56.8,29.79,West,278,5.0,11.0,87,0.00,,,0.65,meteohub,2013-06-15 03:42:00,
2013-06-14 23:47:00,60.8,56.8,29.79,NW,319,5.0,11.0,87,0.00,,,0.65,meteohub,2013-06-15 03:47:00,
2013-06-14 23:52:00,61.0,57.0,29.79,WNW,302,8.0,11.0,87,0.00,,,0.65,meteohub,2013-06-15 03:52:00,
2013-06-14 23:57:00,61.2,57.0,29.79,NW,312,7.0,13.0,86,0.00,,,0.65,meteohub,2013-06-15 03:57:00,